QPF
0.00 0.00 0.00 0.00 0.00 0.00 0.00 0.00 0.00 0.00 0.00 0.00 0.00 0.00 0.00 0.00 0.00 0.00 0.00 0.00 0.00 0.00 0.00 0.00 0.02 0.03 0.03 0.02 0.01 0.00 0.00 0.00 0.00 0.00 0.00 0.00 0.00 0.00 0.00 0.00 0.00 0.00 0.00 0.00 0.00 0.00 0.00 0.01 0.01
0.00 0.00 0.00 0.00 0.00 0.00 0.00 0.00 0.00 0.00 0.00 0.00 0.00 0.00 0.00 0.00 0.00 0.00 0.00 0.00 0.00 0.00 0.00 0.00 0.01 0.02 0.03 0.02 0.00 0.00 0.00 0.00 0.00 0.00 0.00 0.00 0.00 0.00 0.00 0.00 0.00 0.00 0.00 0.00 0.00 0.00 0.00 0.01 0.02
0.00 0.00 0.00 0.00 0.00 0.00 0.00 0.00 0.00 0.00 0.00 0.00 0.00 0.00 0.00 0.00 0.00 0.00 0.00 0.00 0.00 0.00 0.00 0.00 0.00 0.01 0.02 0.01 0.00 0.00 0.00 0.00 0.00 0.00 0.00 0.00 0.00 0.00 0.00 0.00 0.00 0.00 0.00 0.00 0.00 0.00 0.00 0.00 0.01
0.00 0.00 0.00 0.00 0.00 0.00 0.00 0.00 0.00 0.00 0.00 0.00 0.00 0.00 0.00 0.00 0.00 0.00 0.00 0.00 0.00 0.00 0.00 0.00 0.00 0.01 0.01 0.01 0.00 0.00 0.00 0.00 0.00 0.00 0.00 0.01 0.00 0.00 0.00 0.00 0.00 0.00 0.00 0.00 0.00 0.00 0.00 0.00 0.00
0.00 0.00 0.00 0.00 0.00 0.00 0.00 0.00 0.00 0.00 0.00 0.00 0.00 0.00 0.00 0.00 0.00 0.00 0.00 0.00 0.00 0.00 0.00 0.00 0.00 0.00 0.01 0.01 0.00 0.00 0.00 0.00 0.00 0.00 0.00 0.01 0.01 0.00 0.00 0.00 0.00 0.00 0.00 0.00 0.00 0.00 0.00 0.00 0.00
0.00 0.00 0.00 0.00 0.00 0.00 0.00 0.00 0.00 0.00 0.00 0.00 0.00 0.00 0.00 0.00 0.00 0.00 0.00 0.00 0.00 0.00 0.00 0.00 0.00 0.00 0.01 0.01 0.00 0.00 0.00 0.00 0.00 0.00 0.00 0.00 0.00 0.00 0.00 0.00 0.00 0.00 0.00 0.00 0.00 0.00 0.00 0.00 0.00
0.00 0.00 0.00 0.00 0.00 0.00 0.00 0.00 0.00 0.00 0.00 0.00 0.00 0.00 0.00 0.00 0.00 0.00 0.00 0.00 0.00 0.00 0.00 0.00 0.00 0.00 0.00 0.01 0.00 0.00 0.00 0.00 0.00 0.00 0.00 0.00 0.00 0.00 0.00 0.00 0.00 0.00 0.00 0.01 0.01 0.01 0.01 0.01 0.00
0.00 0.00 0.00 0.00 0.00 0.00 0.00 0.00 0.00 0.00 0.00 0.00 0.00 0.00 0.00 0.00 0.00 0.00 0.00 0.00 0.00 0.00 0.00 0.00 0.00 0.00 0.00 0.00 0.00 0.00 0.00 0.00 0.00 0.00 0.00 0.00 0.00 0.00 0.00 0.00 0.00 0.00 0.00 0.01 0.01 0.01 0.02 0.01 0.01
0.00 0.00 0.00 0.00 0.00 0.00 0.00 0.00 0.00 0.00 0.00 0.00 0.00 0.00 0.00 0.00 0.00 0.00 0.00 0.00 0.00 0.00 0.00 0.00 0.00 0.00 0.00 0.00 0.00 0.00 0.00 0.00 0.00 0.00 0.00 0.00 0.00 0.00 0.00 0.00 0.00 0.00 0.00 0.00 0.01 0.01 0.01 0.01 0.00
0.00 0.00 0.00 0.00 0.00 0.00 0.00 0.00 0.00 0.00 0.00 0.00 0.00 0.00 0.00 0.00 0.00 0.00 0.00 0.00 0.00 0.00 0.00 0.00 0.00 0.00 0.00 0.00 0.00 0.00 0.00 0.00 0.00 0.00 0.00 0.00 0.00 0.00 0.00 0.00 0.00 0.00 0.00 0.00 0.00 0.00 0.00 0.00 0.00
0.00 0.00 0.00 0.00 0.00 0.00 0.00 0.00 0.00 0.00 0.00 0.00 0.00 0.00 0.00 0.00 0.00 0.00 0.00 0.00 0.00 0.00 0.00 0.00 0.00 0.00 0.00 0.00 0.00 0.00 0.00 0.00 0.00 0.00 0.00 0.00 0.00 0.00 0.00 0.00 0.00 0.00 0.00 0.00 0.00 0.00 0.00 0.00 0.00
0.00 0.00 0.00 0.00 0.00 0.00 0.00 0.00 0.00 0.00 0.00 0.00 0.00 0.00 0.00 0.00 0.00 0.00 0.00 0.00 0.00 0.00 0.00 0.00 0.00 0.00 0.00 0.00 0.00 0.00 0.00 0.00 0.00 0.00 0.00 0.00 0.00 0.00 0.00 0.00 0.00 0.00 0.00 0.00 0.00 0.00 0.00 0.00 0.00
0.00 0.00 0.00 0.00 0.00 0.00 0.00 0.00 0.00 0.00 0.00 0.00 0.00 0.00 0.00 0.00 0.00 0.00 0.00 0.00 0.00 0.00 0.00 0.00 0.00 0.00 0.00 0.00 0.00 0.00 0.00 0.00 0.00 0.00 0.00 0.00 0.00 0.00 0.00 0.00 0.00 0.00 0.00 0.00 0.00 0.00 0.00 0.00 0.00
0.00 0.00 0.00 0.00 0.00 0.00 0.00 0.00 0.00 0.00 0.00 0.00 0.00 0.00 0.00 0.00 0.00 0.00 0.00 0.00 0.00 0.00 0.00 0.00 0.00 0.00 0.00 0.00 0.00 0.00 0.00 0.00 0.00 0.00 0.00 0.00 0.00 0.00 0.00 0.00 0.00 0.00 0.00 0.00 0.00 0.00 0.00 0.00 0.00
0.00 0.00 0.00 0.00 0.00 0.00 0.00 0.00 0.00 0.00 0.00 0.00 0.00 0.00 0.00 0.00 0.00 0.00 0.00 0.00 0.00 0.00 0.00 0.00 0.00 0.00 0.00 0.00 0.00 0.00 0.00 0.00 0.00 0.00 0.00 0.00 0.00 0.00 0.00 0.00 0.00 0.00 0.00 0.00 0.00 0.00 0.00 0.00 0.00
0.01 0.01 0.00 0.00 0.00 0.00 0.00 0.00 0.00 0.00 0.00 0.00 0.00 0.00 0.00 0.00 0.00 0.00 0.00 0.00 0.00 0.00 0.00 0.00 0.00 0.00 0.00 0.00 0.00 0.00 0.00 0.00 0.00 0.00 0.00 0.00 0.00 0.00 0.00 0.00 0.00 0.00 0.00 0.00 0.00 0.00 0.00 0.00 0.00
0.01 0.01 0.00 0.00 0.00 0.00 0.00 0.00 0.00 0.00 0.00 0.00 0.00 0.00 0.00 0.00 0.00 0.00 0.00 0.00 0.00 0.00 0.00 0.00 0.00 0.00 0.00 0.00 0.00 0.00 0.00 0.00 0.00 0.00 0.00 0.00 0.00 0.00 0.00 0.00 0.00 0.00 0.00 0.00 0.00 0.00 0.00 0.00 0.00
0.01 0.00 0.00 0.00 0.00 0.00 0.00 0.00 0.00 0.00 0.00 0.00 0.00 0.00 0.00 0.00 0.00 0.00 0.00 0.00 0.00 0.00 0.00 0.00 0.00 0.00 0.00 0.00 0.00 0.00 0.00 0.00 0.00 0.00 0.00 0.00 0.00 0.00 0.00 0.00 0.00 0.00 0.00 0.00 0.00 0.00 0.00 0.00 0.00
0.00 0.00 0.00 0.00 0.00 0.00 0.00 0.00 0.00 0.00 0.00 0.00 0.00 0.00 0.00 0.00 0.00 0.00 0.00 0.00 0.00 0.00 0.00 0.00 0.00 0.00 0.00 0.00 0.00 0.00 0.00 0.00 0.00 0.00 0.00 0.00 0.00 0.00 0.00 0.00 0.00 0.00 0.00 0.00 0.00 0.00 0.00 0.00 0.00
0.00 0.00 0.00 0.00 0.00 0.00 0.00 0.00 0.00 0.00 0.00 0.00 0.00 0.00 0.00 0.00 0.00 0.00 0.00 0.00 0.00 0.00 0.00 0.00 0.00 0.00 0.00 0.00 0.00 0.00 0.00 0.00 0.00 0.00 0.00 0.00 0.00 0.00 0.00 0.00 0.00 0.00 0.00 0.00 0.00 0.00 0.00 0.00 0.00
0.00 0.00 0.00 0.00 0.00 0.00 0.00 0.00 0.00 0.00 0.00 0.00 0.00 0.00 0.00 0.00 0.00 0.00 0.00 0.00 0.00 0.00 0.00 0.00 0.00 0.00 0.00 0.00 0.00 0.00 0.00 0.00 0.00 0.00 0.00 0.00 0.00 0.00 0.00 0.00 0.00 0.00 0.00 0.00 0.00 0.00 0.00 0.00 0.00
0.00 0.00 0.00 0.00 0.00 0.00 0.00 0.00 0.00 0.00 0.00 0.00 0.00 0.00 0.00 0.00 0.00 0.00 0.00 0.00 0.00 0.00 0.00 0.00 0.00 0.00 0.00 0.00 0.00 0.00 0.00 0.00 0.00 0.00 0.00 0.00 0.00 0.00 0.00 0.00 0.00 0.00 0.00 0.00 0.00 0.00 0.00 0.00 0.00
0.00 0.00 0.00 0.00 0.00 0.00 0.00 0.00 0.00 0.00 0.00 0.00 0.00 0.00 0.00 0.00 0.00 0.00 0.00 0.00 0.00 0.00 0.00 0.00 0.00 0.00 0.00 0.00 0.00 0.00 0.00 0.00 0.00 0.00 0.00 0.00 0.00 0.00 0.00 0.00 0.00 0.00 0.00 0.00 0.00 0.00 0.00 0.00 0.00
0.00 0.00 0.00 0.00 0.00 0.00 0.00 0.00 0.00 0.00 0.00 0.00 0.00 0.00 0.00 0.00 0.00 0.00 0.00 0.00 0.00 0.00 0.00 0.00 0.00 0.00 0.00 0.00 0.00 0.00 0.00 0.00 0.00 0.00 0.00 0.00 0.00 0.00 0.00 0.00 0.00 0.00 0.00 0.00 0.00 0.00 0.00 0.00 0.00
0.02 0.02 0.03 0.01 0.00 0.00 0.00 0.00 0.00 0.00 0.00 0.00 0.00 0.00 0.00 0.00 0.00 0.00 0.00 0.00 0.00 0.00 0.00 0.00 0.00 0.00 0.00 0.00 0.00 0.00 0.00 0.00 0.00 0.00 0.00 0.00 0.00 0.00 0.00 0.00 0.00 0.00 0.00 0.00 0.00 0.00 0.00 0.00 0.00
0.03 0.03 0.02 0.01 0.00 0.00 0.00 0.00 0.00 0.00 0.00 0.00 0.00 0.00 0.00 0.00 0.00 0.00 0.00 0.00 0.00 0.00 0.00 0.00 0.00 0.00 0.00 0.00 0.00 0.00 0.00 0.00 0.00 0.00 0.00 0.00 0.00 0.00 0.00 0.00 0.00 0.00 0.00 0.00 0.00 0.00 0.00 0.00 0.00
0.03 0.02 0.01 0.00 0.00 0.00 0.00 0.00 0.00 0.00 0.00 0.00 0.00 0.00 0.00 0.00 0.00 0.00 0.00 0.00 0.00 0.00 0.00 0.00 0.00 0.00 0.00 0.00 0.00 0.00 0.00 0.00 0.00 0.00 0.00 0.00 0.00 0.00 0.00 0.00 0.00 0.00 0.00 0.00 0.00 0.00 0.00 0.00 0.00
0.02 0.02 0.01 0.00 0.00 0.00 0.00 0.00 0.00 0.00 0.00 0.00 0.00 0.00 0.00 0.00 0.00 0.00 0.00 0.00 0.00 0.00 0.00 0.00 0.00 0.00 0.00 0.00 0.00 0.00 0.00 0.00 0.00 0.00 0.00 0.00 0.00 0.00 0.00 0.00 0.00 0.00 0.00 0.00 0.00 0.00 0.00 0.00 0.00
0.01 0.02 0.01 0.00 0.00 0.00 0.00 0.00 0.00 0.00 0.00 0.00 0.00 0.00 0.00 0.00 0.00 0.00 0.00 0.00 0.00 0.00 0.00 0.00 0.00 0.00 0.00 0.00 0.00 0.00 0.00 0.00 0.00 0.00 0.00 0.00 0.00 0.00 0.00 0.00 0.00 0.00 0.00 0.00 0.00 0.00 0.00 0.00 0.00
0.00 0.00 0.00 0.00 0.00 0.00 0.00 0.00 0.00 0.00 0.00 0.00 0.00 0.00 0.00 0.00 0.00 0.00 0.00 0.00 0.00 0.00 0.00 0.00 0.00 0.00 0.00 0.00 0.00 0.00 0.00 0.00 0.00 0.00 0.00 0.00 0.00 0.00 0.00 0.00 0.00 0.00 0.00 0.00 0.00 0.00 0.00 0.00 0.00
MSLP
1014.13 1014.36 1014.69 1015.06 1015.37 1015.57 1015.59 1015.41 1015.07 1014.57 1014.00 1013.41 1012.84 1012.34 1011.91 1011.56 1011.27 1011.02 1010.82 1010.67 1010.59 1010.60 1010.73 1010.98 1011.33 1011.76 1012.21 1012.65 1013.01 1013.29 1013.47 1013.57 1013.61 1013.64 1013.67 1013.73 1013.81 1013.91 1013.99 1014.04 1014.05 1014.01 1013.93 1013.84 1013.74 1013.68 1013.65 1013.66 1013.70
1014.34 1014.64 1015.02 1015.41 1015.70 1015.84 1015.76 1015.47 1014.99 1014.37 1013.69 1013.02 1012.41 1011.89 1011.49 1011.18 1010.94 1010.76 1010.62 1010.52 1010.47 1010.51 1010.65 1010.90 1011.25 1011.67 1012.14 1012.58 1012.97 1013.29 1013.51 1013.66 1013.74 1013.79 1013.83 1013.89 1013.95 1014.01 1014.07 1014.09 1014.09 1014.05 1013.98 1013.91 1013.86 1013.83 1013.83 1013.85 1013.88
1014.63 1014.97 1015.37 1015.73 1015.97 1016.03 1015.85 1015.45 1014.86 1014.14 1013.37 1012.65 1012.01 1011.50 1011.11 1010.85 1010.67 1010.55 1010.46 1010.41 1010.40 1010.46 1010.61 1010.86 1011.21 1011.62 1012.08 1012.53 1012.93 1013.27 1013.53 1013.70 1013.81 1013.89 1013.94 1014.00 1014.05 1014.09 1014.12 1014.13 1014.11 1014.08 1014.03 1013.99 1013.97 1013.97 1013.99 1014.02 1014.05
1014.97 1015.32 1015.69 1016.01 1016.18 1016.15 1015.88 1015.38 1014.70 1013.92 1013.10 1012.35 1011.71 1011.21 1010.85 1010.63 1010.49 1010.42 1010.38 1010.37 1010.40 1010.49 1010.65 1010.90 1011.24 1011.64 1012.08 1012.51 1012.90 1013.23 1013.49 1013.68 1013.82 1013.91 1013.98 1014.04 1014.09 1014.13 1014.15 1014.15 1014.13 1014.10 1014.08 1014.06 1014.07 1014.09 1014.12 1014.15 1014.16
1015.30 1015.63 1015.96 1016.21 1016.30 1016.19 1015.84 1015.29 1014.57 1013.75 1012.93 1012.18 1011.55 1011.07 1010.74 1010.54 1010.44 1010.40 1010.40 1010.42 1010.48 1010.60 1010.78 1011.03 1011.35 1011.73 1012.13 1012.52 1012.88 1013.19 1013.43 1013.61 1013.76 1013.86 1013.95 1014.03 1014.08 1014.13 1014.15 1014.15 1014.14 1014.12 1014.11 1014.11 1014.12 1014.15 1014.18 1014.19 1014.18
1015.57 1015.85 1016.12 1016.30 1016.32 1016.15 1015.76 1015.18 1014.46 1013.66 1012.86 1012.14 1011.53 1011.08 1010.77 1010.59 1010.49 1010.47 1010.48 1010.53 1010.62 1010.76 1010.95 1011.20 1011.51 1011.85 1012.21 1012.55 1012.86 1013.12 1013.33 1013.49 1013.63 1013.74 1013.85 1013.94 1014.03 1014.09 1014.13 1014.15 1014.14 1014.13 1014.12 1014.11 1014.12 1014.13 1014.14 1014.12 1014.08
1015.71 1015.94 1016.14 1016.25 1016.22 1016.01 1015.61 1015.05 1014.36 1013.61 1012.87 1012.20 1011.63 1011.20 1010.90 1010.71 1010.62 1010.59 1010.60 1010.66 1010.77 1010.91 1011.12 1011.37 1011.66 1011.97 1012.29 1012.57 1012.82 1013.03 1013.19 1013.33 1013.45 1013.57 1013.70 1013.82 1013.92 1014.02 1014.08 1014.11 1014.11 1014.10 1014.08 1014.05 1014.04 1014.02 1013.98 1013.93 1013.84
1015.71 1015.87 1016.00 1016.05 1015.99 1015.77 1015.40 1014.88 1014.26 1013.58 1012.91 1012.30 1011.77 1011.36 1011.06 1010.86 1010.74 1010.70 1010.70 1010.75 1010.85 1011.01 1011.21 1011.46 1011.74 1012.02 1012.29 1012.53 1012.73 1012.89 1013.01 1013.12 1013.24 1013.36 1013.50 1013.65 1013.78 1013.90 1013.98 1014.03 1014.03 1014.01 1013.97 1013.92 1013.86 1013.80 1013.72 1013.62 1013.48
1015.56 1015.65 1015.72 1015.73 1015.65 1015.44 1015.11 1014.66 1014.11 1013.52 1012.92 1012.37 1011.89 1011.49 1011.18 1010.97 1010.82 1010.74 1010.72 1010.75 1010.84 1010.98 1011.17 1011.41 1011.68 1011.94 1012.18 1012.39 1012.55 1012.68 1012.78 1012.88 1012.99 1013.12 1013.28 1013.44 1013.60 1013.73 1013.83 1013.87 1013.87 1013.84 1013.77 1013.69 1013.59 1013.48 1013.36 1013.21 1013.04
1015.31 1015.33 1015.34 1015.32 1015.23 1015.05 1014.76 1014.38 1013.91 1013.39 1012.86 1012.36 1011.91 1011.53 1011.22 1010.98 1010.81 1010.70 1010.64 1010.64 1010.69 1010.81 1010.98 1011.21 1011.45 1011.70 1011.92 1012.11 1012.27 1012.39 1012.49 1012.59 1012.71 1012.85 1013.02 1013.20 1013.36 1013.50 1013.59 1013.64 1013.62 1013.57 1013.47 1013.36 1013.23 1013.09 1012.92 1012.74 1012.53
1015.01 1014.97 1014.93 1014.89 1014.79 1014.63 1014.38 1014.04 1013.63 1013.17 1012.69 1012.23 1011.81 1011.45 1011.15 1010.90 1010.71 1010.57 1010.48 1010.43 1010.45 1010.53 1010.66 1010.85 1011.07 1011.30 1011.52 1011.72 1011.88 1012.02 1012.15 1012.27 1012.41 1012.57 1012.74 1012.92 1013.08 1013.21 1013.29 1013.31 1013.28 1013.20 1013.09 1012.95 1012.80 1012.63 1012.45 1012.24 1012.01
1014.70 1014.60 1014.54 1014.48 1014.39 1014.23 1014.01 1013.69 1013.30 1012.87 1012.42 1011.99 1011.60 1011.26 1010.98 1010.75 1010.56 1010.41 1010.29 1010.21 1010.17 1010.19 1010.27 1010.40 1010.58 1010.79 1011.02 1011.23 1011.43 1011.61 1011.78 1011.94 1012.10 1012.28 1012.45 1012.62 1012.77 1012.87 1012.92 1012.92 1012.87 1012.77 1012.64 1012.49 1012.33 1012.15 1011.96 1011.73 1011.48
1014.40 1014.29 1014.21 1014.15 1014.05 1013.90 1013.66 1013.34 1012.95 1012.52 1012.08 1011.66 1011.30 1011.01 1010.77 1010.58 1010.41 1010.27 1010.14 1010.02 1009.92 1009.87 1009.88 1009.95 1010.08 1010.27 1010.49 1010.73 1010.97 1011.20 1011.42 1011.63 1011.83 1012.02 1012.19 1012.34 1012.46 1012.53 1012.55 1012.51 1012.43 1012.32 1012.18 1012.03 1011.86 1011.69 1011.49 1011.26 1011.00
1014.14 1014.03 1013.96 1013.90 1013.80 1013.64 1013.38 1013.03 1012.60 1012.15 1011.70 1011.29 1010.97 1010.73 1010.56 1010.44 1010.33 1010.22 1010.09 1009.95 1009.80 1009.67 1009.59 1009.59 1009.66 1009.81 1010.03 1010.29 1010.57 1010.86 1011.14 1011.40 1011.63 1011.83 1011.99 1012.12 1012.21 1012.24 1012.22 1012.16 1012.05 1011.92 1011.78 1011.63 1011.47 1011.29 1011.09 1010.85 1010.57
1013.87 1013.80 1013.76 1013.73 1013.64 1013.46 1013.16 1012.76 1012.29 1011.79 1011.32 1010.93 1010.65 1010.48 1010.40 1010.37 1010.35 1010.30 1010.20 1010.04 1009.84 1009.64 1009.48 1009.39 1009.40 1009.51 1009.72 1010.00 1010.32 1010.66 1010.99 1011.29 1011.55 1011.76 1011.92 1012.02 1012.07 1012.07 1012.02 1011.92 1011.80 1011.66 1011.51 1011.35 1011.19 1011.01 1010.80 1010.54 1010.23
1013.57 1013.56 1013.59 1013.59 1013.53 1013.33 1013.00 1012.54 1012.01 1011.46 1010.97 1010.60 1010.37 1010.29 1010.32 1010.40 1010.49 1010.51 1010.45 1010.29 1010.06 1009.80 1009.56 1009.39 1009.34 1009.41 1009.61 1009.91 1010.26 1010.64 1011.02 1011.35 1011.63 1011.84 1011.99 1012.07 1012.09 1012.06 1011.98 1011.87 1011.73 1011.58 1011.42 1011.26 1011.08 1010.88 1010.65 1010.36 1010.01
1013.22 1013.30 1013.41 1013.47 1013.43 1013.23 1012.86 1012.35 1011.76 1011.16 1010.66 1010.31 1010.14 1010.15 1010.29 1010.51 1010.70 1010.82 1010.81 1010.67 1010.42 1010.11 1009.82 1009.59 1009.49 1009.54 1009.73 1010.03 1010.41 1010.83 1011.23 1011.59 1011.88 1012.09 1012.22 1012.29 1012.29 1012.24 1012.16 1012.03 1011.89 1011.72 1011.55 1011.36 1011.16 1010.93 1010.66 1010.33 1009.92
1012.80 1012.99 1013.19 1013.32 1013.32 1013.11 1012.72 1012.16 1011.52 1010.89 1010.38 1010.05 1009.95 1010.05 1010.32 1010.65 1010.96 1011.17 1011.22 1011.11 1010.86 1010.53 1010.21 1009.95 1009.83 1009.86 1010.05 1010.36 1010.77 1011.20 1011.62 1011.99 1012.28 1012.49 1012.61 1012.67 1012.66 1012.61 1012.52 1012.40 1012.25 1012.08 1011.89 1011.68 1011.44 1011.17 1010.85 1010.46 1010.00
1012.36 1012.65 1012.94 1013.15 1013.17 1012.97 1012.55 1011.96 1011.28 1010.63 1010.11 1009.82 1009.78 1009.98 1010.35 1010.79 1011.21 1011.50 1011.62 1011.55 1011.32 1011.00 1010.67 1010.41 1010.29 1010.33 1010.53 1010.86 1011.28 1011.73 1012.16 1012.52 1012.80 1012.99 1013.11 1013.16 1013.16 1013.11 1013.03 1012.92 1012.78 1012.61 1012.40 1012.16 1011.89 1011.56 1011.19 1010.75 1010.24
1011.92 1012.31 1012.69 1012.95 1013.00 1012.80 1012.36 1011.73 1011.03 1010.36 1009.86 1009.60 1009.62 1009.90 1010.36 1010.90 1011.41 1011.78 1011.96 1011.94 1011.75 1011.47 1011.16 1010.93 1010.83 1010.90 1011.12 1011.48 1011.91 1012.36 1012.77 1013.12 1013.38 1013.56 1013.66 1013.71 1013.71 1013.69 1013.63 1013.54 1013.41 1013.23 1013.02 1012.74 1012.43 1012.06 1011.64 1011.16 1010.61
1011.55 1012.02 1012.46 1012.75 1012.81 1012.60 1012.14 1011.49 1010.76 1010.09 1009.61 1009.39 1009.46 1009.80 1010.34 1010.96 1011.54 1011.98 1012.22 1012.26 1012.13 1011.90 1011.65 1011.46 1011.41 1011.53 1011.78 1012.16 1012.59 1013.03 1013.42 1013.74 1013.97 1014.12 1014.21 1014.26 1014.27 1014.26 1014.23 1014.16 1014.05 1013.88 1013.65 1013.35 1013.00 1012.59 1012.14 1011.62 1011.06
1011.30 1011.82 1012.28 1012.58 1012.63 1012.40 1011.91 1011.23 1010.49 1009.82 1009.36 1009.17 1009.30 1009.70 1010.29 1010.97 1011.61 1012.12 1012.42 1012.53 1012.46 1012.30 1012.12 1012.01 1012.02 1012.18 1012.48 1012.86 1013.29 1013.71 1014.07 1014.34 1014.53 1014.65 1014.72 1014.75 1014.78 1014.78 1014.78 1014.73 1014.63 1014.46 1014.22 1013.90 1013.52 1013.09 1012.61 1012.09 1011.53
1011.18 1011.71 1012.17 1012.45 1012.47 1012.20 1011.66 1010.96 1010.22 1009.56 1009.12 1008.97 1009.14 1009.59 1010.24 1010.97 1011.66 1012.22 1012.59 1012.76 1012.77 1012.69 1012.60 1012.57 1012.65 1012.86 1013.18 1013.58 1013.99 1014.37 1014.68 1014.91 1015.05 1015.12 1015.16 1015.18 1015.21 1015.22 1015.23 1015.20 1015.10 1014.93 1014.67 1014.34 1013.93 1013.48 1012.99 1012.48 1011.94
1011.15 1011.68 1012.11 1012.35 1012.31 1011.99 1011.42 1010.70 1009.94 1009.30 1008.90 1008.79 1009.00 1009.49 1010.18 1010.95 1011.70 1012.31 1012.74 1012.99 1013.09 1013.10 1013.09 1013.14 1013.29 1013.54 1013.89 1014.28 1014.66 1015.00 1015.26 1015.43 1015.52 1015.55 1015.55 1015.56 1015.57 1015.59 1015.60 1015.56 1015.46 1015.28 1015.00 1014.64 1014.22 1013.74 1013.25 1012.75 1012.23
1011.16 1011.67 1012.06 1012.23 1012.14 1011.76 1011.16 1010.41 1009.67 1009.05 1008.67 1008.61 1008.86 1009.40 1010.12 1010.94 1011.73 1012.40 1012.91 1013.23 1013.42 1013.53 1013.61 1013.74 1013.94 1014.23 1014.58 1014.96 1015.31 1015.60 1015.81 1015.92 1015.96 1015.95 1015.92 1015.90 1015.90 1015.90 1015.90 1015.84 1015.72 1015.52 1015.21 1014.82 1014.36 1013.86 1013.36 1012.86 1012.37
1011.14 1011.62 1011.96 1012.07 1011.91 1011.49 1010.85 1010.11 1009.38 1008.79 1008.45 1008.42 1008.72 1009.29 1010.06 1010.91 1011.75 1012.48 1013.06 1013.47 1013.76 1013.96 1014.13 1014.33 1014.58 1014.90 1015.25 1015.60 1015.92 1016.16 1016.32 1016.39 1016.39 1016.34 1016.29 1016.24 1016.22 1016.20 1016.16 1016.08 1015.92 1015.67 1015.32 1014.88 1014.39 1013.86 1013.33 1012.83 1012.34
1011.00 1011.45 1011.74 1011.80 1011.59 1011.14 1010.49 1009.75 1009.04 1008.50 1008.21 1008.22 1008.56 1009.16 1009.96 1010.85 1011.73 1012.52 1013.17 1013.68 1014.05 1014.35 1014.61 1014.87 1015.17 1015.51 1015.86 1016.20 1016.48 1016.69 1016.81 1016.84 1016.82 1016.75 1016.67 1016.60 1016.55 1016.49 1016.42 1016.29 1016.09 1015.78 1015.37 1014.88 1014.33 1013.76 1013.20 1012.67 1012.18
1010.71 1011.13 1011.37 1011.39 1011.15 1010.68 1010.04 1009.33 1008.67 1008.17 1007.93 1007.99 1008.36 1008.99 1009.81 1010.73 1011.65 1012.49 1013.22 1013.81 1014.28 1014.66 1015.01 1015.34 1015.68 1016.04 1016.40 1016.72 1016.99 1017.17 1017.27 1017.28 1017.24 1017.16 1017.06 1016.97 1016.89 1016.80 1016.68 1016.49 1016.23 1015.86 1015.39 1014.84 1014.23 1013.61 1013.00 1012.43 1011.91
1010.23 1010.62 1010.82 1010.81 1010.55 1010.09 1009.49 1008.83 1008.23 1007.80 1007.62 1007.73 1008.12 1008.78 1009.61 1010.54 1011.49 1012.38 1013.16 1013.84 1014.40 1014.87 1015.29 1015.69 1016.09 1016.47 1016.84 1017.16 1017.42 1017.59 1017.68 1017.69 1017.64 1017.55 1017.45 1017.34 1017.22 1017.09 1016.91 1016.67 1016.34 1015.91 1015.38 1014.77 1014.11 1013.43 1012.77 1012.15 1011.58
1009.60 1009.95 1010.12 1010.08 1009.83 1009.40 1008.85 1008.27 1007.76 1007.42 1007.30 1007.46 1007.88 1008.54 1009.38 1010.32 1011.28 1012.20 1013.03 1013.77 1014.41 1014.97 1015.47 1015.94 1016.38 1016.80 1017.18 1017.51 1017.77 1017.95 1018.04 1018.06 1018.01 1017.91 1017.79 1017.65 1017.50 1017.31 1017.08 1016.78 1016.38 1015.90 1015.32 1014.66 1013.96 1013.24 1012.53 1011.86 1011.24
Thickness
5719 5724 5729 5726 5717 5711 5713 5723 5729 5732 5741 5752 5755 5757 5760 5761 5758 5754 5770 5774 5773 5771 5766 5760 5756 5753 5750 5747 5744 5741 5738 5736 5735 5735 5734 5733 5733 5732 5732 5731 5731 5731 5730 5729 5729 5729 5729 5728 5727
5716 5722 5722 5716 5704 5700 5708 5719 5722 5730 5741 5749 5754 5757 5759 5765 5771 5770 5770 5769 5769 5767 5764 5760 5754 5751 5748 5745 5742 5738 5735 5733 5732 5731 5731 5730 5730 5729 5728 5728 5728 5727 5727 5726 5725 5725 5725 5724 5723
5712 5717 5711 5704 5697 5699 5704 5715 5722 5732 5742 5743 5750 5758 5760 5763 5767 5768 5769 5767 5765 5764 5761 5758 5752 5749 5746 5743 5739 5736 5733 5731 5729 5728 5728 5728 5727 5726 5726 5725 5724 5724 5723 5722 5721 5721 5720 5720 5718
5708 5707 5704 5697 5692 5700 5706 5716 5721 5726 5738 5743 5746 5752 5761 5762 5764 5765 5765 5763 5762 5761 5758 5755 5749 5746 5744 5741 5737 5734 5732 5729 5727 5726 5725 5725 5725 5724 5723 5722 5721 5720 5719 5718 5717 5717 5716 5716 5714
5702 5698 5690 5689 5692 5701 5710 5714 5717 5720 5729 5738 5742 5745 5754 5756 5759 5760 5760 5759 5759 5758 5755 5752 5745 5743 5741 5738 5736 5733 5730 5727 5725 5723 5722 5722 5722 5721 5720 5719 5717 5717 5716 5714 5713 5713 5712 5712 5710
5689 5690 5683 5684 5691 5699 5707 5712 5714 5719 5726 5734 5737 5740 5748 5751 5753 5754 5756 5755 5756 5754 5751 5748 5742 5740 5738 5736 5733 5731 5728 5725 5723 5721 5719 5719 5718 5717 5717 5715 5714 5713 5712 5711 5710 5710 5709 5708 5707
5680 5680 5680 5684 5686 5692 5702 5710 5712 5716 5722 5730 5734 5733 5745 5747 5747 5749 5751 5751 5751 5750 5748 5745 5742 5738 5735 5733 5731 5728 5726 5723 5720 5718 5716 5715 5714 5713 5713 5712 5711 5710 5709 5708 5707 5707 5706 5705 5704
5681 5678 5676 5680 5681 5688 5701 5707 5712 5714 5719 5731 5731 5729 5735 5741 5743 5744 5745 5746 5746 5746 5745 5744 5742 5739 5736 5733 5729 5726 5723 5720 5718 5715 5713 5712 5711 5710 5709 5708 5707 5706 5706 5705 5704 5703 5703 5702 5701
5672 5667 5672 5678 5679 5688 5698 5700 5709 5716 5718 5724 5730 5732 5736 5738 5738 5738 5738 5739 5740 5740 5742 5742 5740 5738 5735 5733 5729 5724 5721 5718 5715 5713 5711 5709 5710 5711 5708 5707 5704 5703 5702 5702 5701 5700 5699 5698 5698
5661 5662 5675 5683 5685 5688 5693 5696 5702 5708 5712 5719 5726 5732 5736 5736 5735 5735 5736 5738 5738 5739 5739 5740 5738 5736 5733 5730 5727 5724 5721 5718 5715 5714 5712 5710 5709 5707 5705 5703 5701 5700 5699 5698 5697 5696 5694 5693 5695
5658 5666 5677 5677 5682 5685 5687 5694 5701 5699 5703 5714 5718 5726 5731 5731 5734 5735 5738 5741 5742 5742 5740 5739 5737 5735 5732 5729 5726 5724 5721 5717 5714 5711 5709 5706 5705 5703 5702 5701 5700 5698 5696 5696 5695 5693 5692 5692 5691
5656 5668 5672 5675 5676 5678 5683 5690 5696 5699 5705 5718 5723 5724 5726 5729 5733 5736 5738 5741 5741 5740 5740 5739 5737 5734 5731 5729 5726 5723 5719 5716 5712 5708 5706 5704 5702 5700 5700 5698 5697 5695 5694 5692 5690 5689 5689 5687 5686
5652 5662 5666 5669 5670 5675 5679 5686 5693 5701 5711 5718 5720 5720 5723 5728 5732 5736 5737 5739 5739 5739 5739 5739 5737 5734 5731 5727 5724 5721 5718 5715 5711 5706 5703 5701 5699 5698 5697 5694 5691 5690 5688 5687 5685 5684 5684 5683 5682
5653 5657 5661 5665 5667 5672 5675 5686 5691 5700 5711 5714 5715 5717 5720 5721 5723 5728 5730 5733 5735 5736 5737 5737 5736 5734 5730 5726 5722 5719 5716 5711 5708 5704 5701 5697 5695 5693 5690 5688 5686 5685 5683 5681 5679 5679 5678 5678 5678
5648 5645 5652 5659 5664 5671 5673 5679 5690 5701 5706 5708 5712 5713 5711 5714 5716 5718 5720 5724 5728 5731 5733 5734 5733 5731 5728 5724 5720 5716 5712 5708 5704 5700 5696 5693 5690 5687 5685 5683 5681 5679 5677 5675 5674 5673 5672 5672 5672
5634 5633 5638 5658 5663 5668 5665 5673 5692 5700 5701 5704 5709 5710 5709 5708 5711 5714 5716 5719 5722 5725 5727 5729 5728 5727 5724 5720 5715 5711 5708 5703 5699 5695 5691 5688 5685 5682 5680 5678 5676 5673 5670 5669 5667 5666 5666 5666 5665
5622 5626 5639 5652 5663 5665 5665 5673 5687 5696 5697 5702 5708 5709 5706 5706 5707 5709 5711 5714 5717 5720 5722 5723 5723 5722 5719 5714 5708 5704 5701 5696 5692 5688 5684 5681 5678 5675 5673 5670 5667 5666 5663 5661 5659 5658 5657 5657 5657
5619 5632 5642 5647 5659 5660 5663 5674 5685 5697 5698 5702 5707 5706 5702 5702 5702 5703 5705 5707 5710 5712 5715 5716 5716 5715 5711 5707 5701 5696 5691 5686 5681 5677 5673 5670 5667 5664 5662 5659 5656 5655 5653 5650 5649 5647 5647 5646 5647
5632 5637 5640 5647 5655 5653 5662 5674 5684 5696 5699 5701 5703 5702 5699 5697 5695 5697 5699 5701 5703 5704 5706 5706 5707 5706 5703 5699 5693 5686 5680 5674 5669 5664 5660 5657 5654 5651 5648 5647 5644 5642 5640 5638 5637 5636 5636 5636 5635
5628 5631 5635 5641 5643 5648 5660 5673 5688 5696 5698 5701 5702 5699 5696 5692 5691 5691 5692 5693 5694 5695 5695 5696 5695 5694 5692 5687 5682 5676 5670 5663 5657 5652 5647 5644 5641 5638 5636 5633 5632 5629 5627 5625 5623 5621 5620 5621 5619
5619 5628 5635 5636 5638 5647 5652 5672 5686 5690 5689 5690 5694 5694 5692 5690 5688 5686 5685 5683 5683 5683 5684 5683 5682 5681 5678 5675 5670 5664 5658 5653 5647 5641 5636 5632 5629 5625 5623 5620 5618 5616 5614 5611 5608 5606 5604 5604 5604
5616 5631 5632 5629 5632 5642 5646 5655 5681 5689 5685 5682 5685 5686 5685 5682 5682 5680 5677 5675 5673 5673 5673 5672 5671 5669 5666 5664 5660 5655 5649 5642 5635 5630 5625 5621 5616 5613 5610 5607 5604 5602 5600 5597 5594 5590 5587 5586 5585
5623 5626 5624 5624 5627 5633 5647 5647 5677 5686 5683 5684 5683 5681 5679 5677 5675 5671 5668 5665 5664 5662 5662 5661 5660 5657 5654 5651 5646 5642 5636 5629 5624 5619 5614 5611 5605 5600 5596 5593 5590 5587 5584 5580 5577 5573 5570 5567 5563
5616 5614 5610 5612 5618 5624 5648 5649 5670 5686 5687 5685 5679 5676 5672 5670 5667 5663 5659 5657 5655 5653 5652 5650 5648 5644 5640 5636 5633 5628 5623 5618 5613 5608 5604 5600 5595 5589 5584 5580 5577 5573 5569 5564 5560 5556 5552 5547 5541
5608 5605 5593 5595 5607 5632 5644 5647 5670 5685 5681 5682 5678 5673 5669 5664 5660 5656 5653 5651 5648 5645 5642 5640 5637 5632 5627 5623 5619 5614 5610 5605 5600 5596 5592 5588 5583 5578 5571 5567 5563 5559 5554 5549 5544 5539 5533 5528 5521
5605 5611 5610 5616 5624 5638 5632 5644 5674 5675 5674 5674 5677 5672 5663 5658 5655 5651 5648 5644 5641 5637 5633 5630 5625 5620 5615 5610 5606 5601 5597 5592 5587 5582 5578 5574 5569 5564 5558 5553 5549 5544 5538 5533 5527 5522 5515 5509 5503
5602 5607 5618 5623 5625 5633 5645 5656 5671 5667 5669 5668 5670 5665 5658 5654 5649 5644 5640 5637 5632 5628 5623 5619 5614 5608 5603 5598 5594 5589 5584 5579 5574 5569 5564 5559 5554 5549 5544 5539 5534 5528 5522 5516 5509 5504 5497 5490 5483
5611 5613 5606 5609 5617 5628 5642 5651 5665 5670 5669 5663 5663 5661 5656 5650 5644 5638 5633 5627 5623 5617 5612 5608 5604 5598 5592 5587 5581 5575 5571 5566 5561 5556 5551 5545 5540 5534 5529 5523 5517 5511 5504 5498 5491 5485 5478 5471 5463
5598 5602 5610 5612 5620 5631 5638 5654 5666 5667 5667 5664 5661 5660 5654 5646 5639 5632 5626 5619 5613 5607 5602 5597 5592 5586 5580 5574 5569 5564 5558 5553 5548 5542 5536 5530 5524 5518 5512 5505 5499 5492 5486 5479 5473 5467 5459 5451 5444
5612 5613 5615 5612 5617 5630 5641 5652 5662 5660 5660 5659 5658 5654 5649 5641 5634 5627 5618 5611 5604 5598 5593 5588 5582 5576 5569 5562 5557 5551 5545 5539 5534 5528 5521 5515 5508 5501 5494 5487 5480 5474 5467 5460 5454 5448 5440 5433 5425